TimeCST,TemperatureF,Dew PointF,Humidity,Sea Level PressureIn,VisibilityMPH,Wind Direction,Wind SpeedMPH,Gust SpeedMPH,PrecipitationIn,Events,Conditions,WindDirDegrees,DateUTC
12:52 AM,46.0,39.9,79,29.94,-9999.0,NNE,10.4,-,N/A,,Unknown,30,2012-12-07 06:52:00
1:52 AM,45.0,39.9,82,29.94,-9999.0,NNE,9.2,-,N/A,,Unknown,20,2012-12-07 07:52:00
2:52 AM,45.0,39.9,82,29.94,-9999.0,North,6.9,-,N/A,,Unknown,10,2012-12-07 08:52:00
3:52 AM,43.0,39.9,89,29.94,-9999.0,NNE,8.1,-,N/A,,Unknown,20,2012-12-07 09:52:00
4:52 AM,43.0,39.9,89,29.94,-9999.0,North,4.6,-,N/A,,Unknown,350,2012-12-07 10:52:00
5:52 AM,42.1,39.0,89,29.94,-9999.0,North,3.5,-,N/A,,Unknown,360,2012-12-07 11:52:00
6:52 AM,42.1,39.0,89,29.94,-9999.0,North,4.6,-,N/A,,Unknown,10,2012-12-07 12:52:00
7:52 AM,42.1,37.9,85,29.94,-9999.0,North,4.6,-,N/A,,Unknown,360,2012-12-07 13:52:00
8:52 AM,43.0,37.9,82,29.95,-9999.0,NNE,5.8,-,N/A,,Unknown,30,2012-12-07 14:52:00
9:52 AM,43.0,37.9,82,29.96,-9999.0,NNE,5.8,-,N/A,,Unknown,20,2012-12-07 15:52:00
10:52 AM,45.0,39.0,80,29.95,-9999.0,NNE,5.8,-,N/A,,Unknown,20,2012-12-07 16:52:00
11:52 AM,45.0,37.9,76,29.92,-9999.0,NE,6.9,-,N/A,,Unknown,40,2012-12-07 17:52:00
12:52 PM,45.0,37.9,76,29.91,-9999.0,NE,4.6,-,N/A,,Unknown,50,2012-12-07 18:52:00
1:52 PM,45.0,37.9,76,29.88,-9999.0,NE,5.8,-,N/A,,Unknown,40,2012-12-07 19:52:00
2:52 PM,45.0,39.0,80,29.89,-9999.0,NNE,4.6,-,N/A,,Unknown,20,2012-12-07 20:52:00
3:52 PM,44.1,37.0,76,29.91,-9999.0,North,5.8,-,N/A,,Unknown,360,2012-12-07 21:52:00
4:52 PM,44.1,37.0,76,29.92,-9999.0,NNE,3.5,-,N/A,,Unknown,20,2012-12-07 22:52:00
5:52 PM,43.0,37.0,80,29.93,-9999.0,North,5.8,-,N/A,,Unknown,360,2012-12-07 23:52:00
6:52 PM,43.0,37.0,80,29.94,-9999.0,NNE,4.6,-,N/A,,Unknown,20,2012-12-08 00:52:00
7:52 PM,42.1,37.0,82,29.94,-9999.0,NNE,4.6,-,N/A,,Unknown,30,2012-12-08 01:52:00
8:52 PM,41.0,37.9,89,29.94,-9999.0,ENE,3.5,-,0.01,,Unknown,70,2012-12-08 02:52:00
9:52 PM,41.0,37.9,89,29.95,-9999.0,Calm,Calm,-,0.01,,Unknown,0,2012-12-08 03:52:00
10:52 PM,41.0,37.9,89,29.96,-9999.0,NNW,4.6,-,N/A,,Unknown,330,2012-12-08 04:52:00
11:52 PM,39.9,37.9,93,29.98,-9999.0,NNW,3.5,-,N/A,,Unknown,330,2012-12-08 05:52:00